Year,Month,Day,Hour,Minute,Value (Times are PST for temperature in C)
2016,04,03,00,00,8.20
2016,04,03,00,01,8.20
2016,04,03,00,02,8.20
2016,04,03,00,03,8.20
2016,04,03,00,04,8.20
2016,04,03,00,05,8.20
2016,04,03,00,06,8.10
2016,04,03,00,07,8.10
2016,04,03,00,08,8.10
2016,04,03,00,09,8.10
2016,04,03,00,10,8.10
2016,04,03,00,11,8.10
2016,04,03,00,12,8.10
2016,04,03,00,13,8.00
2016,04,03,00,14,8.00
2016,04,03,00,15,8.00
2016,04,03,00,16,8.00
2016,04,03,00,17,7.90
2016,04,03,00,18,7.90
2016,04,03,00,19,7.90
2016,04,03,00,20,7.90
2016,04,03,00,21,7.90
2016,04,03,00,22,7.90
2016,04,03,00,23,7.90
2016,04,03,00,24,7.80
2016,04,03,00,25,7.80
2016,04,03,00,26,7.80
2016,04,03,00,27,7.80
2016,04,03,00,28,7.80
2016,04,03,00,29,7.80
2016,04,03,00,30,7.80
2016,04,03,00,31,7.80
2016,04,03,00,32,7.80
2016,04,03,00,33,7.80
2016,04,03,00,34,7.80
2016,04,03,00,35,7.80
2016,04,03,00,36,7.80
2016,04,03,00,37,7.70
2016,04,03,00,38,7.70
2016,04,03,00,39,7.70
2016,04,03,00,40,7.70
2016,04,03,00,41,7.70
2016,04,03,00,42,7.70
2016,04,03,00,43,7.70
2016,04,03,00,44,7.70
2016,04,03,00,45,7.70
2016,04,03,00,46,7.70
2016,04,03,00,47,7.70
2016,04,03,00,48,7.70
2016,04,03,00,49,7.70
2016,04,03,00,50,7.70
2016,04,03,00,51,7.70
2016,04,03,00,52,7.70
2016,04,03,00,53,7.70
2016,04,03,00,54,7.60
2016,04,03,00,55,7.60
2016,04,03,00,56,7.60
2016,04,03,00,57,7.60
2016,04,03,00,58,7.60
2016,04,03,00,59,7.60
2016,04,03,01,00,7.60
2016,04,03,01,01,7.60
2016,04,03,01,02,7.60
2016,04,03,01,03,7.60
2016,04,03,01,04,7.60
2016,04,03,01,05,7.60
2016,04,03,01,06,7.60
2016,04,03,01,07,7.60
2016,04,03,01,08,7.60
2016,04,03,01,09,7.50
2016,04,03,01,10,7.50
2016,04,03,01,11,7.50
2016,04,03,01,12,7.50
2016,04,03,01,13,7.60
2016,04,03,01,14,7.60
2016,04,03,01,15,7.60
2016,04,03,01,16,7.60
2016,04,03,01,17,7.60
2016,04,03,01,18,7.60
2016,04,03,01,19,7.60
2016,04,03,01,20,7.60
2016,04,03,01,21,7.60
2016,04,03,01,22,7.60
2016,04,03,01,23,7.60
2016,04,03,01,24,7.60
2016,04,03,01,25,7.60
2016,04,03,01,26,7.60
2016,04,03,01,27,7.60
2016,04,03,01,28,7.60
2016,04,03,01,29,7.60
2016,04,03,01,30,7.60
2016,04,03,01,31,7.60
2016,04,03,01,32,7.60
2016,04,03,01,33,7.60
2016,04,03,01,34,7.60
2016,04,03,01,35,7.60
2016,04,03,01,36,7.60
2016,04,03,01,37,7.60
2016,04,03,01,38,7.60
2016,04,03,01,39,7.60
2016,04,03,01,40,7.50
2016,04,03,01,41,7.50
2016,04,03,01,42,7.50
2016,04,03,01,43,7.40
2016,04,03,01,44,7.40
2016,04,03,01,45,7.40
2016,04,03,01,46,7.40
2016,04,03,01,47,7.40
2016,04,03,01,48,7.40
2016,04,03,01,49,7.40
2016,04,03,01,50,7.30
2016,04,03,01,51,7.30
2016,04,03,01,52,7.30
2016,04,03,01,53,7.30
2016,04,03,01,54,7.30
2016,04,03,01,55,7.30
2016,04,03,01,56,7.30
2016,04,03,01,57,7.30
2016,04,03,01,58,7.30
2016,04,03,01,59,7.30
2016,04,03,02,00,7.30
2016,04,03,02,01,7.30
2016,04,03,02,02,7.30
2016,04,03,02,03,7.30
2016,04,03,02,04,7.30
2016,04,03,02,05,7.30
2016,04,03,02,06,7.30
2016,04,03,02,07,7.30
2016,04,03,02,08,7.20
2016,04,03,02,09,7.20
2016,04,03,02,10,7.20
2016,04,03,02,11,7.20
2016,04,03,02,12,7.20
2016,04,03,02,13,7.20
2016,04,03,02,14,7.20
2016,04,03,02,15,7.20
2016,04,03,02,16,7.20
2016,04,03,02,17,7.20
2016,04,03,02,18,7.20
2016,04,03,02,19,7.20
2016,04,03,02,20,7.20
2016,04,03,02,21,7.20
2016,04,03,02,22,7.10
2016,04,03,02,23,7.10
2016,04,03,02,24,7.10
2016,04,03,02,25,7.10
2016,04,03,02,26,7.00
2016,04,03,02,27,7.00
2016,04,03,02,28,7.00
2016,04,03,02,29,6.90
2016,04,03,02,30,6.90
2016,04,03,02,31,6.90
2016,04,03,02,32,6.90
2016,04,03,02,33,6.90
2016,04,03,02,34,6.90
2016,04,03,02,35,6.80
2016,04,03,02,36,6.80
2016,04,03,02,37,6.80
2016,04,03,02,38,6.80
2016,04,03,02,39,6.80
2016,04,03,02,40,6.70
2016,04,03,02,41,6.70
2016,04,03,02,42,6.70
2016,04,03,02,43,6.70
2016,04,03,02,44,6.70
2016,04,03,02,45,6.70
2016,04,03,02,46,6.70
2016,04,03,02,47,6.70
2016,04,03,02,48,6.60
2016,04,03,02,49,6.60
2016,04,03,02,50,6.60
2016,04,03,02,51,6.60
2016,04,03,02,52,6.60
2016,04,03,02,53,6.60
2016,04,03,02,54,6.60
2016,04,03,02,55,6.50
2016,04,03,02,56,6.50
2016,04,03,02,57,6.50
2016,04,03,02,58,6.50
2016,04,03,02,59,6.40
2016,04,03,03,00,6.40
2016,04,03,03,01,6.40
2016,04,03,03,02,6.40
2016,04,03,03,03,6.40
2016,04,03,03,04,6.30
2016,04,03,03,05,6.30
2016,04,03,03,06,6.30
2016,04,03,03,07,6.30
2016,04,03,03,08,6.30
2016,04,03,03,09,6.20
2016,04,03,03,10,6.20
2016,04,03,03,11,6.20
2016,04,03,03,12,6.20
2016,04,03,03,13,6.20
2016,04,03,03,14,6.20
2016,04,03,03,15,6.10
2016,04,03,03,16,6.10
2016,04,03,03,17,6.10
2016,04,03,03,18,6.10
2016,04,03,03,19,6.00
2016,04,03,03,20,6.00
2016,04,03,03,21,5.90
2016,04,03,03,22,5.90
2016,04,03,03,23,5.90
2016,04,03,03,24,5.90
2016,04,03,03,25,5.90
2016,04,03,03,26,5.80
2016,04,03,03,27,5.80
2016,04,03,03,28,5.80
2016,04,03,03,29,5.80
2016,04,03,03,30,5.80
2016,04,03,03,31,5.70
2016,04,03,03,32,5.70
2016,04,03,03,33,5.70
2016,04,03,03,34,5.70
2016,04,03,03,35,5.70
2016,04,03,03,36,5.70
2016,04,03,03,37,5.60
2016,04,03,03,38,5.60
2016,04,03,03,39,5.60
2016,04,03,03,40,5.60
2016,04,03,03,41,5.60
2016,04,03,03,42,5.60
2016,04,03,03,43,5.50
2016,04,03,03,44,5.50
2016,04,03,03,45,5.50
2016,04,03,03,46,5.50
2016,04,03,03,47,5.40
2016,04,03,03,48,5.40
2016,04,03,03,49,5.40
2016,04,03,03,50,5.40
2016,04,03,03,51,5.40
2016,04,03,03,52,5.40
2016,04,03,03,53,5.30
2016,04,03,03,54,5.30
2016,04,03,03,55,5.30
2016,04,03,03,56,5.30
2016,04,03,03,57,5.30
2016,04,03,03,58,5.30
2016,04,03,03,59,5.30
2016,04,03,04,00,5.30
2016,04,03,04,01,5.30
2016,04,03,04,02,5.30
2016,04,03,04,03,5.20
2016,04,03,04,04,5.20
2016,04,03,04,05,5.20
2016,04,03,04,06,5.20
2016,04,03,04,07,5.20
2016,04,03,04,08,5.20
2016,04,03,04,09,5.20
2016,04,03,04,10,5.20
2016,04,03,04,11,5.20
2016,04,03,04,12,5.20
2016,04,03,04,13,5.20
2016,04,03,04,14,5.20
2016,04,03,04,15,5.20
2016,04,03,04,16,5.20
2016,04,03,04,17,5.20
2016,04,03,04,18,5.20
2016,04,03,04,19,5.20
2016,04,03,04,20,5.10
2016,04,03,04,21,5.10
2016,04,03,04,22,5.10
2016,04,03,04,23,5.10
2016,04,03,04,24,5.10
2016,04,03,04,25,5.10
2016,04,03,04,26,5.10
2016,04,03,04,27,5.10
2016,04,03,04,28,5.10
2016,04,03,04,29,5.10
2016,04,03,04,30,5.10
2016,04,03,04,31,5.10
2016,04,03,04,32,5.00
2016,04,03,04,33,5.00
2016,04,03,04,34,5.00
2016,04,03,04,35,5.00
2016,04,03,04,36,5.00
2016,04,03,04,37,5.00
2016,04,03,04,38,5.00
2016,04,03,04,39,5.00
2016,04,03,04,40,5.00
2016,04,03,04,41,5.00
2016,04,03,04,42,5.00
2016,04,03,04,43,5.00
2016,04,03,04,44,5.00
2016,04,03,04,45,5.00
2016,04,03,04,46,5.00
2016,04,03,04,47,5.00
2016,04,03,04,48,4.90
2016,04,03,04,49,4.90
2016,04,03,04,50,4.90
2016,04,03,04,51,4.90
2016,04,03,04,52,4.90
2016,04,03,04,53,4.90
2016,04,03,04,54,4.90
2016,04,03,04,55,4.90
2016,04,03,04,56,4.90
2016,04,03,04,57,4.80
2016,04,03,04,58,4.80
2016,04,03,04,59,4.80
2016,04,03,05,00,4.80
2016,04,03,05,01,4.80
2016,04,03,05,02,4.80
2016,04,03,05,03,4.80
2016,04,03,05,04,4.80
2016,04,03,05,05,4.80
2016,04,03,05,06,4.80
2016,04,03,05,07,4.70
2016,04,03,05,08,4.70
2016,04,03,05,09,4.70
2016,04,03,05,10,4.70
2016,04,03,05,11,4.70
2016,04,03,05,12,4.70
2016,04,03,05,13,4.70
2016,04,03,05,14,4.70
2016,04,03,05,15,4.70
2016,04,03,05,16,4.70
2016,04,03,05,17,4.70
2016,04,03,05,18,4.70
2016,04,03,05,19,4.70
2016,04,03,05,20,4.70
2016,04,03,05,21,4.70
2016,04,03,05,22,4.70
2016,04,03,05,23,4.80
2016,04,03,05,24,4.80
2016,04,03,05,25,4.80
2016,04,03,05,26,4.80
2016,04,03,05,27,4.80
2016,04,03,05,28,4.80
2016,04,03,05,29,4.80
2016,04,03,05,30,4.80
2016,04,03,05,31,4.80
2016,04,03,05,32,4.80
2016,04,03,05,33,4.80
2016,04,03,05,34,4.80
2016,04,03,05,35,4.80
2016,04,03,05,36,4.80
2016,04,03,05,37,4.80
2016,04,03,05,38,4.80
2016,04,03,05,39,4.80
2016,04,03,05,40,4.80
2016,04,03,05,41,4.80
2016,04,03,05,42,4.80
2016,04,03,05,43,4.80
2016,04,03,05,44,4.90
2016,04,03,05,45,4.80
2016,04,03,05,46,4.80
2016,04,03,05,47,4.80
2016,04,03,05,48,4.80
2016,04,03,05,49,4.80
2016,04,03,05,50,4.80
2016,04,03,05,51,4.90
2016,04,03,05,52,4.90
2016,04,03,05,53,4.90
2016,04,03,05,54,4.90
2016,04,03,05,55,4.90
2016,04,03,05,56,4.90
2016,04,03,05,57,4.90
2016,04,03,05,58,4.90
2016,04,03,05,59,4.90
2016,04,03,06,00,4.90
2016,04,03,06,01,4.90
2016,04,03,06,02,4.90
2016,04,03,06,03,4.90
2016,04,03,06,04,4.90
2016,04,03,06,05,4.90
2016,04,03,06,06,4.90
2016,04,03,06,07,4.90
2016,04,03,06,08,4.90
2016,04,03,06,09,5.00
2016,04,03,06,10,5.00
2016,04,03,06,11,4.90
2016,04,03,06,12,5.00
2016,04,03,06,13,5.00
2016,04,03,06,14,5.00
2016,04,03,06,15,5.00
2016,04,03,06,16,5.00
2016,04,03,06,17,5.00
2016,04,03,06,18,5.10
2016,04,03,06,19,5.10
2016,04,03,06,20,5.10
2016,04,03,06,21,5.10
2016,04,03,06,22,5.10
2016,04,03,06,23,5.10
2016,04,03,06,24,5.10
2016,04,03,06,25,5.10
2016,04,03,06,26,5.10
2016,04,03,06,27,5.10
2016,04,03,06,28,5.10
2016,04,03,06,29,5.10
2016,04,03,06,30,5.10
2016,04,03,06,31,5.10
2016,04,03,06,32,5.10
2016,04,03,06,33,5.20
2016,04,03,06,34,5.20
2016,04,03,06,35,5.20
2016,04,03,06,36,5.20
2016,04,03,06,37,5.10
2016,04,03,06,38,5.10
2016,04,03,06,39,5.10
2016,04,03,06,40,5.10
2016,04,03,06,41,5.10
2016,04,03,06,42,5.10
2016,04,03,06,43,5.10
2016,04,03,06,44,5.20
2016,04,03,06,45,5.20
2016,04,03,06,46,5.20
2016,04,03,06,47,5.20
2016,04,03,06,48,5.20
2016,04,03,06,49,5.20
2016,04,03,06,50,5.20
2016,04,03,06,51,5.20
2016,04,03,06,52,5.20
2016,04,03,06,53,5.20
2016,04,03,06,54,5.20
2016,04,03,06,55,5.20
2016,04,03,06,56,5.20
2016,04,03,06,57,5.20
2016,04,03,06,58,5.20
2016,04,03,06,59,5.20
2016,04,03,07,00,5.20
2016,04,03,07,01,5.20
2016,04,03,07,02,5.20
2016,04,03,07,03,5.20
2016,04,03,07,04,5.20
2016,04,03,07,05,5.20
2016,04,03,07,06,5.20
2016,04,03,07,07,5.20
2016,04,03,07,08,5.20
2016,04,03,07,09,5.20
2016,04,03,07,10,5.20
2016,04,03,07,11,5.30
2016,04,03,07,12,5.30
2016,04,03,07,13,5.30
2016,04,03,07,14,5.30
2016,04,03,07,15,5.30
2016,04,03,07,16,5.30
2016,04,03,07,17,5.30
2016,04,03,07,18,5.30
2016,04,03,07,19,5.30
2016,04,03,07,20,5.30
2016,04,03,07,21,5.30
2016,04,03,07,22,5.30
2016,04,03,07,23,5.40
2016,04,03,07,24,5.40
2016,04,03,07,25,5.40
2016,04,03,07,26,5.40
2016,04,03,07,27,5.40
2016,04,03,07,28,5.40
2016,04,03,07,29,5.40
2016,04,03,07,30,5.40
2016,04,03,07,31,5.40
2016,04,03,07,32,5.40
2016,04,03,07,33,5.40
2016,04,03,07,34,5.40
2016,04,03,07,35,5.40
2016,04,03,07,36,5.40
2016,04,03,07,37,5.50
2016,04,03,07,38,5.50
2016,04,03,07,39,5.50
2016,04,03,07,40,5.50
2016,04,03,07,41,5.50
2016,04,03,07,42,5.50
2016,04,03,07,43,5.50
2016,04,03,07,44,5.50
2016,04,03,07,45,5.60
2016,04,03,07,46,5.60
2016,04,03,07,47,5.60
2016,04,03,07,48,5.60
2016,04,03,07,49,5.60
2016,04,03,07,50,5.60
2016,04,03,07,51,5.70
2016,04,03,07,52,5.70
2016,04,03,07,53,5.70
2016,04,03,07,54,5.70
2016,04,03,07,55,5.70
2016,04,03,07,56,5.70
2016,04,03,07,57,5.80
2016,04,03,07,58,5.80
2016,04,03,07,59,5.80
2016,04,03,08,00,5.80
2016,04,03,08,01,5.80
2016,04,03,08,02,5.80
2016,04,03,08,03,5.80
2016,04,03,08,04,5.80
2016,04,03,08,05,5.90
2016,04,03,08,06,5.90
2016,04,03,08,07,5.90
2016,04,03,08,08,5.90
2016,04,03,08,09,6.00
2016,04,03,08,10,6.00
2016,04,03,08,11,6.00
2016,04,03,08,12,6.10
2016,04,03,08,13,6.10
2016,04,03,08,14,6.10
2016,04,03,08,15,6.10
2016,04,03,08,16,6.10
2016,04,03,08,17,6.10
2016,04,03,08,18,6.10
2016,04,03,08,19,6.20
2016,04,03,08,20,6.20
2016,04,03,08,21,6.20
2016,04,03,08,22,6.20
2016,04,03,08,23,6.30
2016,04,03,08,24,6.30
2016,04,03,08,25,6.30
2016,04,03,08,26,6.40
2016,04,03,08,27,6.40
2016,04,03,08,28,6.40
2016,04,03,08,29,6.50
2016,04,03,08,30,6.50
2016,04,03,08,31,6.60
2016,04,03,08,32,6.60
2016,04,03,08,33,6.70
2016,04,03,08,34,6.70
2016,04,03,08,35,6.70
2016,04,03,08,36,6.80
2016,04,03,08,37,6.80
2016,04,03,08,38,6.80
2016,04,03,08,39,6.80
2016,04,03,08,40,6.90
2016,04,03,08,41,7.00
2016,04,03,08,42,7.00
2016,04,03,08,43,7.00
2016,04,03,08,44,7.10
2016,04,03,08,45,7.10
2016,04,03,08,46,7.20
2016,04,03,08,47,7.20
2016,04,03,08,48,7.20
2016,04,03,08,49,7.30
2016,04,03,08,50,7.40
2016,04,03,08,51,7.40
2016,04,03,08,52,7.50
2016,04,03,08,53,7.50
2016,04,03,08,54,7.60
2016,04,03,08,55,7.70
2016,04,03,08,56,7.80
2016,04,03,08,57,7.80
2016,04,03,08,58,7.90
2016,04,03,08,59,7.90
2016,04,03,09,00,8.00
2016,04,03,09,01,8.10
2016,04,03,09,02,8.20
2016,04,03,09,03,8.20
2016,04,03,09,04,8.30
2016,04,03,09,05,8.30
2016,04,03,09,06,8.40
2016,04,03,09,07,8.40
2016,04,03,09,08,8.40
2016,04,03,09,09,8.50
2016,04,03,09,10,8.50
2016,04,03,09,11,8.60
2016,04,03,09,12,8.60
2016,04,03,09,13,8.70
2016,04,03,09,14,8.70
2016,04,03,09,15,8.80
2016,04,03,09,16,8.80
2016,04,03,09,17,8.90
2016,04,03,09,18,8.90
2016,04,03,09,19,9.00
2016,04,03,09,20,9.00
2016,04,03,09,21,9.10
2016,04,03,09,22,9.20
2016,04,03,09,23,9.20
2016,04,03,09,24,9.30
2016,04,03,09,25,9.30
2016,04,03,09,26,9.40
2016,04,03,09,27,9.40
2016,04,03,09,28,9.50
2016,04,03,09,29,9.50
2016,04,03,09,30,9.60
2016,04,03,09,31,9.60
2016,04,03,09,32,9.60
2016,04,03,09,33,9.70
2016,04,03,09,34,9.70
2016,04,03,09,35,9.80
2016,04,03,09,36,9.80
2016,04,03,09,37,9.90
2016,04,03,09,38,9.90
2016,04,03,09,39,10.00
2016,04,03,09,40,10.00
2016,04,03,09,41,10.10
2016,04,03,09,42,10.20
2016,04,03,09,43,10.30
2016,04,03,09,44,10.30
2016,04,03,09,45,10.40
2016,04,03,09,46,10.50
2016,04,03,09,47,10.50
2016,04,03,09,48,10.60
2016,04,03,09,49,10.60
2016,04,03,09,50,10.60
2016,04,03,09,51,10.70
2016,04,03,09,52,10.70
2016,04,03,09,53,10.80
2016,04,03,09,54,10.80
2016,04,03,09,55,10.90
2016,04,03,09,56,10.90
2016,04,03,09,57,11.00
2016,04,03,09,58,11.00
2016,04,03,09,59,11.10
2016,04,03,10,00,11.10
2016,04,03,10,01,11.20
2016,04,03,10,02,11.20
2016,04,03,10,03,11.20
2016,04,03,10,04,11.20
2016,04,03,10,05,11.20
2016,04,03,10,06,11.20
2016,04,03,10,07,11.20
2016,04,03,10,08,11.30
2016,04,03,10,09,11.30
2016,04,03,10,10,11.30
2016,04,03,10,11,11.30
2016,04,03,10,12,11.40
2016,04,03,10,13,11.40
2016,04,03,10,14,11.50
2016,04,03,10,15,11.50
2016,04,03,10,16,11.60
2016,04,03,10,17,11.60
2016,04,03,10,18,11.60
2016,04,03,10,19,11.70
2016,04,03,10,20,11.70
2016,04,03,10,21,11.70
2016,04,03,10,22,11.80
2016,04,03,10,23,11.80
2016,04,03,10,24,11.80
2016,04,03,10,25,11.80
2016,04,03,10,26,11.80
2016,04,03,10,27,11.70
2016,04,03,10,28,11.70
2016,04,03,10,29,11.70
2016,04,03,10,30,11.70
2016,04,03,10,31,11.70
2016,04,03,10,32,11.70
2016,04,03,10,33,11.70
2016,04,03,10,34,11.70
2016,04,03,10,35,11.80
2016,04,03,10,36,11.70
2016,04,03,10,37,11.70
2016,04,03,10,38,11.70
2016,04,03,10,39,11.70
2016,04,03,10,40,11.70
2016,04,03,10,41,11.70
2016,04,03,10,42,11.70
2016,04,03,10,43,11.70
2016,04,03,10,44,11.60
2016,04,03,10,45,11.60
2016,04,03,10,46,11.60
2016,04,03,10,47,11.60
2016,04,03,10,48,11.60
2016,04,03,10,49,11.60
2016,04,03,10,50,11.60
2016,04,03,10,51,11.60
2016,04,03,10,52,11.60
2016,04,03,10,53,11.70
2016,04,03,10,54,11.70
2016,04,03,10,55,11.70
2016,04,03,10,56,11.70
2016,04,03,10,57,11.70
2016,04,03,10,58,11.80
2016,04,03,10,59,11.80
2016,04,03,11,00,11.80
2016,04,03,11,01,11.80
2016,04,03,11,02,11.80
2016,04,03,11,03,11.90
2016,04,03,11,04,11.90
2016,04,03,11,05,12.00
2016,04,03,11,06,12.00
2016,04,03,11,07,12.10
2016,04,03,11,08,12.10
2016,04,03,11,09,12.10
2016,04,03,11,10,12.10
2016,04,03,11,11,12.20
2016,04,03,11,12,12.20
2016,04,03,11,13,12.20
2016,04,03,11,14,12.30
2016,04,03,11,15,12.30
2016,04,03,11,16,12.40
2016,04,03,11,17,12.40
2016,04,03,11,18,12.40
2016,04,03,11,19,12.40
2016,04,03,11,20,12.40
2016,04,03,11,21,12.40
2016,04,03,11,22,12.40
2016,04,03,11,23,12.40
2016,04,03,11,24,12.50
2016,04,03,11,25,12.50
2016,04,03,11,26,12.50
2016,04,03,11,27,12.50
2016,04,03,11,28,12.60
2016,04,03,11,29,12.60
2016,04,03,11,30,12.60
2016,04,03,11,31,12.70
2016,04,03,11,32,12.70
2016,04,03,11,33,12.60
2016,04,03,11,34,12.60
2016,04,03,11,35,12.60
2016,04,03,11,36,12.60
2016,04,03,11,37,12.60
2016,04,03,11,38,12.60
2016,04,03,11,39,12.70
2016,04,03,11,40,12.70
2016,04,03,11,41,12.70
2016,04,03,11,42,12.80
2016,04,03,11,43,12.90
2016,04,03,11,44,12.90
2016,04,03,11,45,12.90
2016,04,03,11,46,12.90
2016,04,03,11,47,12.90
2016,04,03,11,48,12.90
2016,04,03,11,49,12.90
2016,04,03,11,50,13.00
2016,04,03,11,51,13.10
2016,04,03,11,52,13.20
2016,04,03,11,53,13.20
2016,04,03,11,54,13.20
2016,04,03,11,55,13.30
2016,04,03,11,56,13.40
2016,04,03,11,57,13.40
2016,04,03,11,58,13.50
2016,04,03,11,59,13.50
2016,04,03,12,00,13.40
2016,04,03,12,01,13.40
2016,04,03,12,02,13.30
2016,04,03,12,03,13.40
2016,04,03,12,04,13.50
2016,04,03,12,05,13.50
2016,04,03,12,06,13.50
2016,04,03,12,07,13.60
2016,04,03,12,08,13.70
2016,04,03,12,09,13.80
2016,04,03,12,10,13.80
2016,04,03,12,11,13.90
2016,04,03,12,12,13.90
2016,04,03,12,13,13.90
2016,04,03,12,14,13.90
2016,04,03,12,15,13.90
2016,04,03,12,16,13.90
2016,04,03,12,17,13.90
2016,04,03,12,18,14.00
2016,04,03,12,19,14.10
2016,04,03,12,20,14.10
2016,04,03,12,21,14.20
2016,04,03,12,22,14.20
2016,04,03,12,23,14.20
2016,04,03,12,24,14.10
2016,04,03,12,25,14.00
2016,04,03,12,26,14.00
2016,04,03,12,27,13.90
2016,04,03,12,28,13.90
2016,04,03,12,29,13.90
2016,04,03,12,30,13.90
2016,04,03,12,31,13.90
2016,04,03,12,32,14.00
2016,04,03,12,33,14.00
2016,04,03,12,34,14.00
2016,04,03,12,35,14.10
2016,04,03,12,36,14.10
2016,04,03,12,37,14.20
2016,04,03,12,38,14.20
2016,04,03,12,39,14.20
2016,04,03,12,40,14.20
2016,04,03,12,41,14.20
2016,04,03,12,42,14.20
2016,04,03,12,43,14.20
2016,04,03,12,44,14.20
2016,04,03,12,45,14.30
2016,04,03,12,46,14.30
2016,04,03,12,47,14.30
2016,04,03,12,48,14.40
2016,04,03,12,49,14.50
2016,04,03,12,50,14.50
2016,04,03,12,51,14.60
2016,04,03,12,52,14.60
2016,04,03,12,53,14.60
2016,04,03,12,54,14.70
2016,04,03,12,55,14.70
2016,04,03,12,56,14.70
2016,04,03,12,57,14.60
2016,04,03,12,58,14.60
2016,04,03,12,59,14.60
2016,04,03,13,00,14.70
2016,04,03,13,01,14.70
2016,04,03,13,02,14.80
2016,04,03,13,03,14.80
2016,04,03,13,04,14.80
2016,04,03,13,05,14.70
2016,04,03,13,06,14.60
2016,04,03,13,07,14.60
2016,04,03,13,08,14.50
2016,04,03,13,09,14.40
2016,04,03,13,10,14.40
2016,04,03,13,11,14.30
2016,04,03,13,12,14.30
2016,04,03,13,13,14.30
2016,04,03,13,14,14.30
2016,04,03,13,15,14.40
2016,04,03,13,16,14.40
2016,04,03,13,17,14.40
2016,04,03,13,18,14.50
2016,04,03,13,19,14.50
2016,04,03,13,20,14.60
2016,04,03,13,21,14.60
2016,04,03,13,22,14.60
2016,04,03,13,23,14.60
2016,04,03,13,24,14.60
2016,04,03,13,25,14.60
2016,04,03,13,26,14.60
2016,04,03,13,27,14.60
2016,04,03,13,28,14.60
2016,04,03,13,29,14.60
2016,04,03,13,30,14.60
2016,04,03,13,31,14.60
2016,04,03,13,32,14.60
2016,04,03,13,33,14.70
2016,04,03,13,34,14.70
2016,04,03,13,35,14.80
2016,04,03,13,36,14.90
2016,04,03,13,37,14.90
2016,04,03,13,38,15.00
2016,04,03,13,39,15.00
2016,04,03,13,40,15.00
2016,04,03,13,41,15.00
2016,04,03,13,42,15.00
2016,04,03,13,43,15.00
2016,04,03,13,44,14.90
2016,04,03,13,45,14.80
2016,04,03,13,46,14.80
2016,04,03,13,47,14.70
2016,04,03,13,48,14.70
2016,04,03,13,49,14.70
2016,04,03,13,50,14.70
2016,04,03,13,51,14.70
2016,04,03,13,52,14.70
2016,04,03,13,53,14.70
2016,04,03,13,54,14.70
2016,04,03,13,55,14.70
2016,04,03,13,56,14.70
2016,04,03,13,57,14.70
2016,04,03,13,58,14.70
2016,04,03,13,59,14.70
2016,04,03,14,00,14.70
2016,04,03,14,01,14.70
2016,04,03,14,02,14.80
2016,04,03,14,03,14.80
2016,04,03,14,04,14.80
2016,04,03,14,05,14.80
2016,04,03,14,06,14.80
2016,04,03,14,07,14.80
2016,04,03,14,08,14.80
2016,04,03,14,09,14.80
2016,04,03,14,10,14.80
2016,04,03,14,11,14.90
2016,04,03,14,12,15.00
2016,04,03,14,13,15.00
2016,04,03,14,14,15.00
2016,04,03,14,15,15.00
2016,04,03,14,16,15.00
2016,04,03,14,17,15.00
2016,04,03,14,18,15.10
2016,04,03,14,19,15.20
2016,04,03,14,20,15.20
2016,04,03,14,21,15.20
2016,04,03,14,22,15.20
2016,04,03,14,23,15.20
2016,04,03,14,24,15.20
2016,04,03,14,25,15.20
2016,04,03,14,26,15.30
2016,04,03,14,27,15.30
2016,04,03,14,28,15.40
2016,04,03,14,29,15.40
2016,04,03,14,30,15.40
2016,04,03,14,31,15.50
2016,04,03,14,32,15.50
2016,04,03,14,33,15.60
2016,04,03,14,34,15.60
2016,04,03,14,35,15.60
2016,04,03,14,36,15.60
2016,04,03,14,37,15.60
2016,04,03,14,38,15.60
2016,04,03,14,39,15.60
2016,04,03,14,40,15.60
2016,04,03,14,41,15.70
2016,04,03,14,42,15.70
2016,04,03,14,43,15.70
2016,04,03,14,44,15.70
2016,04,03,14,45,15.70
2016,04,03,14,46,15.70
2016,04,03,14,47,15.70
2016,04,03,14,48,15.60
2016,04,03,14,49,15.60
2016,04,03,14,50,15.60
2016,04,03,14,51,15.50
2016,04,03,14,52,15.50
2016,04,03,14,53,15.50
2016,04,03,14,54,15.50
2016,04,03,14,55,15.50
2016,04,03,14,56,15.60
2016,04,03,14,57,15.60
2016,04,03,14,58,15.60
2016,04,03,14,59,15.60
2016,04,03,15,00,15.60
2016,04,03,15,01,15.60
2016,04,03,15,02,15.60
2016,04,03,15,03,15.50
2016,04,03,15,04,15.50
2016,04,03,15,05,15.50
2016,04,03,15,06,15.50
2016,04,03,15,07,15.50
2016,04,03,15,08,15.50
2016,04,03,15,09,15.60
2016,04,03,15,10,15.60
2016,04,03,15,11,15.70
2016,04,03,15,12,15.70
2016,04,03,15,13,15.80
2016,04,03,15,14,15.80
2016,04,03,15,15,15.80
2016,04,03,15,16,15.80
2016,04,03,15,17,15.80
2016,04,03,15,18,15.80
2016,04,03,15,19,15.70
2016,04,03,15,20,15.70
2016,04,03,15,21,15.70
2016,04,03,15,22,15.70
2016,04,03,15,23,15.70
2016,04,03,15,24,15.70
2016,04,03,15,25,15.70
2016,04,03,15,26,15.70
2016,04,03,15,27,15.70
2016,04,03,15,28,15.70
2016,04,03,15,29,15.70
2016,04,03,15,30,15.70
2016,04,03,15,31,15.70
2016,04,03,15,32,15.70
2016,04,03,15,33,15.70
2016,04,03,15,34,15.70
2016,04,03,15,35,15.70
2016,04,03,15,36,15.70
2016,04,03,15,37,15.70
2016,04,03,15,38,15.70
2016,04,03,15,39,15.70
2016,04,03,15,40,15.70
2016,04,03,15,41,15.70
2016,04,03,15,42,15.70
2016,04,03,15,43,15.60
2016,04,03,15,44,15.60
2016,04,03,15,45,15.60
2016,04,03,15,46,15.60
2016,04,03,15,47,15.60
2016,04,03,15,48,15.60
2016,04,03,15,49,15.60
2016,04,03,15,50,15.60
2016,04,03,15,51,15.60
2016,04,03,15,52,15.60
2016,04,03,15,53,15.60
2016,04,03,15,54,15.60
2016,04,03,15,55,15.60
2016,04,03,15,56,15.60
2016,04,03,15,57,15.70
2016,04,03,15,58,15.70
2016,04,03,15,59,15.70
2016,04,03,16,00,15.70
2016,04,03,16,01,15.70
2016,04,03,16,02,15.60
2016,04,03,16,03,15.60
2016,04,03,16,04,15.60
2016,04,03,16,05,15.60
2016,04,03,16,06,15.60
2016,04,03,16,07,15.60
2016,04,03,16,08,15.60
2016,04,03,16,09,15.60
2016,04,03,16,10,15.60
2016,04,03,16,11,15.60
2016,04,03,16,12,15.60
2016,04,03,16,13,15.60
2016,04,03,16,14,15.60
2016,04,03,16,15,15.60
2016,04,03,16,16,15.60
2016,04,03,16,17,15.70
2016,04,03,16,18,15.60
2016,04,03,16,19,15.70
2016,04,03,16,20,15.70
2016,04,03,16,21,15.60
2016,04,03,16,22,15.60
2016,04,03,16,23,15.60
2016,04,03,16,24,15.60
2016,04,03,16,25,15.60
2016,04,03,16,26,15.60
2016,04,03,16,27,15.60
2016,04,03,16,28,15.60
2016,04,03,16,29,15.60
2016,04,03,16,30,15.60
2016,04,03,16,31,15.60
2016,04,03,16,32,15.60
2016,04,03,16,33,15.60
2016,04,03,16,34,15.60
2016,04,03,16,35,15.70
2016,04,03,16,36,15.70
2016,04,03,16,37,15.70
2016,04,03,16,38,15.70
2016,04,03,16,39,15.70
2016,04,03,16,40,15.70
2016,04,03,16,41,15.70
2016,04,03,16,42,15.70
2016,04,03,16,43,15.70
2016,04,03,16,44,15.70
2016,04,03,16,45,15.70
2016,04,03,16,46,15.70
2016,04,03,16,47,15.70
2016,04,03,16,48,15.60
2016,04,03,16,49,15.60
2016,04,03,16,50,15.60
2016,04,03,16,51,15.60
2016,04,03,16,52,15.60
2016,04,03,16,53,15.60
2016,04,03,16,54,15.60
2016,04,03,16,55,15.60
2016,04,03,16,56,15.60
2016,04,03,16,57,15.50
2016,04,03,16,58,15.50
2016,04,03,16,59,15.50
2016,04,03,17,00,15.50
2016,04,03,17,01,15.50
2016,04,03,17,02,15.50
2016,04,03,17,03,15.50
2016,04,03,17,04,15.40
2016,04,03,17,05,15.40
2016,04,03,17,06,15.40
2016,04,03,17,07,15.40
2016,04,03,17,08,15.40
2016,04,03,17,09,15.40
2016,04,03,17,10,15.40
2016,04,03,17,11,15.40
2016,04,03,17,12,15.40
2016,04,03,17,13,15.40
2016,04,03,17,14,15.40
2016,04,03,17,15,15.50
2016,04,03,17,16,15.50
2016,04,03,17,17,15.50
2016,04,03,17,18,15.50
2016,04,03,17,19,15.40
2016,04,03,17,20,15.40
2016,04,03,17,21,15.40
2016,04,03,17,22,15.40
2016,04,03,17,23,15.40
2016,04,03,17,24,15.40
2016,04,03,17,25,15.30
2016,04,03,17,26,15.30
2016,04,03,17,27,15.30
2016,04,03,17,28,15.30
2016,04,03,17,29,15.20
2016,04,03,17,30,15.20
2016,04,03,17,31,15.20
2016,04,03,17,32,15.20
2016,04,03,17,33,15.20
2016,04,03,17,34,15.20
2016,04,03,17,35,15.20
2016,04,03,17,36,15.20
2016,04,03,17,37,15.20
2016,04,03,17,38,15.20
2016,04,03,17,39,15.20
2016,04,03,17,40,15.20
2016,04,03,17,41,15.20
2016,04,03,17,42,15.20
2016,04,03,17,43,15.20
2016,04,03,17,44,15.20